Cadillac, MI

10:08 AM EDT on July 24, 2017 (GMT -0400)
Wexford County

Weather History for KCAD - April, 2013

Change the Weather History Date:

Tuesday, April 23, 2013

  Actual Average Record
Temperature  
Mean Temperature 46 °F -  
Max Temperature 59 °F 57 °F 104 °F (1997)
Min Temperature 32 °F 32 °F 15 °F (1986)
Degree Days  
Heating Degree Days 20    
Moisture  
Dew Point 36 °F    
Average Humidity 70    
Maximum Humidity 90    
Minimum Humidity 49    
Precipitation  
Precipitation 0.00 in - - ()
Sea Level Pressure  
Sea Level Pressure 29.93 in    
Wind  
Wind Speed 8 mph (South)    
Max Wind Speed 14 mph    
Max Gust Speed 21 mph    
Visibility 9 miles    
Events Rain , Snow    
Averages and records for this station are not official NWS values.
T = Trace of Precipitation, MM = Missing Value Source: NWS Daily Summary

Daily Weather History Graph

Daily Weather History Graph

Search for Another Location

Airport or City:

Trip Planner

Search our weather history database for the weather conditions in past years. The results will help you decide how hot, cold, wet, or windy it might be!

Date:

Astronomy

Apr. 23, 2013 Rise Set
Actual Time 6:44 AM EDT 8:36 PM EDT
Civil Twilight 6:13 AM EDT 9:07 PM EDT
Nautical Twilight 5:35 AM EDT 9:45 PM EDT
Astronomical Twilight 4:54 AM EDT 10:26 PM EDT
Moon 6:26 PM EDT (4/23) 5:17 AM EDT (4/23)
Length of Visible Light 14h 53m
Length of Day
13h 51m
Waxing Gibbous, 94% of the Moon is Illuminated
Apr 23
Waxing Gibbous
Apr 25
Full
May 2
Last Quarter
May 9
New
May 18
First Quarter

Hourly Weather History & Observations

Time (EDT) Temp. Windchill Dew Point Humidity Pressure Visibility Wind Dir Wind Speed Gust Speed Precip Events Conditions
12:15 AM 44.6 °F 40.7 °F 28.4 °F 53% 30.10 in 10.0 mi ESE 6.9 mph - N/A   Clear
12:35 AM 43.9 °F 40.5 °F 28.9 °F 56% 30.10 in 10.0 mi ESE 5.8 mph - N/A   Clear
12:55 AM 43.9 °F 39.9 °F 29.7 °F 57% 30.09 in 10.0 mi ESE 6.9 mph - N/A   Clear
1:15 AM 45.5 °F 41.8 °F 29.7 °F 54% 30.09 in 10.0 mi SE 6.9 mph - N/A   Clear
1:35 AM 48.9 °F - 30.9 °F 50% 30.08 in 10.0 mi SSE 6.9 mph - N/A   Clear
1:55 AM 49.1 °F - 30.9 °F 50% 30.08 in 10.0 mi SE 6.9 mph - N/A   Clear
2:15 AM 49.1 °F - 30.7 °F 49% 30.07 in 10.0 mi SSE 6.9 mph - N/A   Clear
2:35 AM 48.0 °F - 30.2 °F 50% 30.06 in 10.0 mi SE 5.8 mph - N/A   Clear
2:55 AM 46.4 °F 42.9 °F 28.9 °F 51% 30.05 in 10.0 mi SE 6.9 mph - N/A   Clear
3:15 AM 46.4 °F 42.9 °F 29.1 °F 51% 30.05 in 10.0 mi SSE 6.9 mph - N/A   Clear
3:34 AM 45.9 °F 42.3 °F 29.5 °F 53% 30.04 in 10.0 mi SSE 6.9 mph - N/A   Clear
3:55 AM 46.2 °F 42.7 °F 29.8 °F 53% 30.03 in 10.0 mi SSE 6.9 mph - N/A   Clear
4:15 AM 45.1 °F 41.4 °F 29.8 °F 55% 30.02 in 10.0 mi SSE 6.9 mph - N/A   Clear
4:34 AM 45.1 °F 41.4 °F 30.0 °F 55% 30.01 in 10.0 mi SSE 6.9 mph - N/A   Clear
4:55 AM 45.3 °F 41.1 °F 30.2 °F 56% 29.99 in 10.0 mi SSE 8.1 mph - N/A   Clear
5:15 AM 45.1 °F 40.8 °F 30.2 °F 56% 29.98 in 10.0 mi SSE 8.1 mph - N/A   Clear
5:34 AM 44.8 °F 42.4 °F 30.2 °F 57% 29.98 in 10.0 mi SE 4.6 mph - N/A   Clear
5:55 AM 43.9 °F 41.3 °F 30.6 °F 59% 29.97 in 10.0 mi SE 4.6 mph - N/A   Clear
6:15 AM 43.9 °F 42.3 °F 30.9 °F 60% 29.96 in 10.0 mi SE 3.5 mph - N/A   Clear
6:34 AM 43.2 °F 41.5 °F 31.3 °F 63% 29.96 in 10.0 mi ESE 3.5 mph - N/A   Scattered Clouds
6:55 AM 44.1 °F 41.5 °F 31.6 °F 62% 29.95 in 10.0 mi SE 4.6 mph - N/A   Overcast
7:15 AM 45.1 °F 42.8 °F 32.0 °F 60% 29.94 in 10.0 mi SE 4.6 mph - N/A   Mostly Cloudy
7:34 AM 45.0 °F - 32.0 °F 60% 29.93 in 10.0 mi Calm Calm - N/A   Mostly Cloudy
7:55 AM 49.1 °F - 33.1 °F 54% 29.92 in 10.0 mi South 5.8 mph - N/A   Mostly Cloudy
8:15 AM 51.4 °F - 34.0 °F 51% 29.93 in 10.0 mi South 9.2 mph - N/A   Mostly Cloudy
8:35 AM 51.4 °F - 34.7 °F 53% 29.93 in 10.0 mi South 6.9 mph - N/A   Overcast
8:55 AM 51.4 °F - 34.7 °F 53% 29.93 in 10.0 mi South 8.1 mph - N/A   Overcast
9:15 AM 51.4 °F - 35.1 °F 54% 29.95 in 10.0 mi SSW 12.7 mph - N/A   Overcast
9:35 AM 46.4 °F 42.4 °F 38.3 °F 73% 29.94 in 10.0 mi South 8.1 mph - N/A Rain Light Rain
9:55 AM 49.1 °F - 39.7 °F 70% 29.93 in 10.0 mi South 9.2 mph - N/A Rain Rain
10:15 AM 51.4 °F - 41.4 °F 68% 29.92 in 10.0 mi South 8.1 mph - N/A   Mostly Cloudy
10:35 AM 51.4 °F - 40.1 °F 65% 29.92 in 10.0 mi South 9.2 mph - N/A   Overcast
10:55 AM 51.4 °F - 39.9 °F 65% 29.92 in 10.0 mi SSW 9.2 mph - N/A   Overcast
11:15 AM 51.4 °F - 40.6 °F 67% 29.92 in 10.0 mi South 5.8 mph - N/A   Drizzle
11:35 AM 51.4 °F - 40.8 °F 67% 29.92 in 10.0 mi SSW 5.8 mph - N/A Rain Light Rain
11:55 AM 52.2 °F - 41.4 °F 67% 29.90 in 10.0 mi South 8.1 mph - N/A   Light Drizzle
12:15 PM 55.9 °F - 43.9 °F 64% 29.88 in 10.0 mi South 11.5 mph - N/A   Mostly Cloudy
12:35 PM 56.5 °F - 43.3 °F 61% 29.89 in 10.0 mi South 11.5 mph - N/A   Scattered Clouds
12:55 PM 56.5 °F - 42.8 °F 60% 29.88 in 10.0 mi South 9.2 mph - N/A   Scattered Clouds
1:15 PM 58.6 °F - 44.2 °F 59% 29.88 in 10.0 mi South 8.1 mph - N/A   Mostly Cloudy
1:35 PM 59.0 °F - 44.1 °F 58% 29.86 in 10.0 mi South 10.4 mph - N/A   Scattered Clouds
1:55 PM 59.0 °F - 43.9 °F 57% 29.86 in 10.0 mi SSW 12.7 mph 17.3 mph N/A   Mostly Cloudy
2:14 PM 56.5 °F - 45.9 °F 68% 29.85 in 10.0 mi SW 11.5 mph 19.6 mph N/A Rain Light Rain
2:35 PM 54.1 °F - 47.5 °F 78% 29.86 in 10.0 mi SW 13.8 mph - N/A Rain Rain
2:55 PM 53.8 °F - 48.4 °F 82% 29.86 in 10.0 mi SSW 11.5 mph - N/A Rain Rain
3:14 PM 51.4 °F - 47.3 °F 86% 29.86 in 7.0 mi SW 10.4 mph - N/A Rain Light Rain
3:35 PM 51.4 °F - 48.2 °F 89% 29.86 in 7.0 mi SW 10.4 mph - N/A Rain Rain
3:55 PM 51.4 °F - 48.4 °F 89% 29.86 in 5.0 mi West 8.1 mph - N/A Rain Rain
4:14 PM 49.5 °F - 46.0 °F 88% 29.85 in 10.0 mi West 10.4 mph 16.1 mph N/A Rain Rain
4:35 PM 47.3 °F - 44.2 °F 89% 29.85 in 10.0 mi WNW 11.5 mph - N/A Rain Light Rain
4:55 PM - - - N/A% 29.84 in 10.0 mi West 9.2 mph - N/A Rain Light Rain
5:14 PM 45.0 °F 40.6 °F 41.9 °F 89% 29.84 in 10.0 mi West 8.1 mph - N/A Rain Rain
5:35 PM 44.1 °F 39.0 °F 41.0 °F 89% 29.85 in 7.0 mi NW 9.2 mph - N/A Rain Rain
5:55 PM 43.9 °F 39.3 °F 40.8 °F 89% 29.85 in 10.0 mi NW 8.1 mph - N/A Rain Rain
6:14 PM 41.4 °F 34.7 °F 38.1 °F 88% 29.84 in 10.0 mi NNW 11.5 mph 18.4 mph N/A Rain Rain
6:35 PM 41.2 °F 35.5 °F 37.9 °F 88% 29.85 in 10.0 mi NNW 9.2 mph 18.4 mph N/A Rain Light Rain
6:55 PM 38.8 °F 32.1 °F 35.8 °F 89% 29.86 in 10.0 mi NNW 10.4 mph 16.1 mph N/A Rain Light Rain
7:15 PM 38.7 °F 31.8 °F 35.6 °F 89% 29.86 in 10.0 mi North 10.4 mph - N/A Rain Light Rain
7:35 PM 37.4 °F 30.8 °F 34.3 °F 89% 29.86 in 5.0 mi NNW 9.2 mph - N/A Rain Rain
7:55 PM 36.1 °F 29.3 °F 33.1 °F 89% 29.86 in 7.0 mi NNW 9.2 mph - N/A Rain Light Rain
8:15 PM 36.1 °F 29.3 °F 33.1 °F 89% 29.86 in 5.0 mi NNW 9.2 mph 18.4 mph N/A Rain Rain
8:35 PM 33.8 °F 26.4 °F 31.1 °F 90% 29.87 in 10.0 mi NNW 9.2 mph - N/A Snow Light Snow
8:55 PM 33.8 °F 26.4 °F 31.1 °F 90% 29.88 in 5.0 mi NNW 9.2 mph 18.4 mph N/A   Overcast
9:15 PM 33.8 °F 27.7 °F 30.9 °F 89% 29.89 in 10.0 mi North 6.9 mph 18.4 mph N/A   Overcast
9:35 PM 33.8 °F 27.0 °F 30.9 °F 89% 29.90 in 7.0 mi North 8.1 mph - N/A Snow Light Snow
9:54 PM 33.8 °F 26.4 °F 30.9 °F 89% 29.89 in 7.0 mi NNW 9.2 mph - N/A Snow Light Snow
10:15 PM 32.9 °F 25.9 °F 30.4 °F 90% 29.90 in 3.0 mi NNW 8.1 mph - N/A Snow Light Snow
10:35 PM 32.4 °F 24.6 °F 29.5 °F 89% 29.90 in 5.0 mi NNW 9.2 mph 18.4 mph N/A Snow Light Snow
10:54 PM 32.4 °F 24.6 °F 29.3 °F 88% 29.90 in 4.0 mi NNW 9.2 mph - N/A Snow Light Snow
11:15 PM 32.4 °F 24.0 °F 29.7 °F 90% 29.89 in 5.0 mi NNW 10.4 mph 18.4 mph N/A Snow Light Snow
11:35 PM 32.0 °F 23.6 °F 29.3 °F 90% 29.88 in 7.0 mi North 10.4 mph 20.7 mph N/A Snow Light Snow
11:54 PM 32.0 °F 23.6 °F 29.3 °F 90% 29.88 in 7.0 mi NNW 10.4 mph 16.1 mph N/A Snow Light Snow